Weather History for LHUD - June, 2013

Change the Weather History Date:

Monday, June 3, 2013

  Actual Average (LRAR) Record (LRAR)
Temperature  
Mean Temperature 58 °F -  
Max Temperature 64 °F 78 °F 84 °F (1998)
Min Temperature 52 °F 56 °F 44 °F (2014)
Degree Days  
Heating Degree Days 7    
Growing Degree Days 8 (Base 50)    
Moisture  
Dew Point 52 °F    
Average Humidity 80    
Maximum Humidity 94    
Minimum Humidity 64    
Precipitation  
Precipitation 0.00 in 0.09 in - ()
Sea Level Pressure  
Sea Level Pressure 29.91 in    
Wind  
Wind Speed 10 mph ()    
Max Wind Speed 17 mph    
Max Gust Speed -    
Visibility 6.7 miles    
Events      
Averages and records for this station are not official NWS values.
T = Trace of Precipitation, MM = Missing Value Source: Averaged Metar Reports

Daily Weather History Graph

Daily Weather History Graph

Search for Another Location

Airport or City:

Trip Planner

Search our weather history database for the weather conditions in past years. The results will help you decide how hot, cold, wet, or windy it might be!

Date:

Astronomy

Jun. 03, 2013 Rise Set
Actual Time 4:50 AM CEST 8:25 PM CEST
Civil Twilight 4:12 AM CEST 9:03 PM CEST
Nautical Twilight 3:22 AM CEST 9:54 PM CEST
Astronomical Twilight 2:14 AM CEST 11:02 PM CEST
Moon 1:54 AM CEST 3:24 PM CEST
Length of Visible Light 16h 51m
Length of Day
15h 35m
Waning Crescent, 24% of the Moon is Illuminated
Jun 3
Waning Crescent
Jun 8
New
Jun 16
First Quarter
Jun 23
Full
Jun 30
Last Quarter

Hourly Weather History & Observations

Time (CEST) Temp. Dew Point Humidity Pressure Visibility Wind Dir Wind Speed Gust Speed Precip Events Conditions
12:45 AM 53.6 °F 51.8 °F 94% 29.86 in - WNW 9.2 mph - N/A   Clear
1:45 AM 53.6 °F 51.8 °F 94% 29.86 in - WNW 6.9 mph - N/A   Clear
2:00 AM 53 °F 52 °F 94% 29.87 in 6 mi WNW 6.7 mph - -   Partly Cloudy
2:45 AM 53.6 °F 51.8 °F 94% 29.89 in - NW 8.1 mph - N/A   Clear
3:45 AM 53.6 °F 51.8 °F 94% 29.89 in 5.0 mi WNW 10.4 mph - N/A   Partly Cloudy
4:45 AM 53.6 °F 51.8 °F 94% 29.89 in 6.2 mi WNW 12.7 mph - N/A   Scattered Clouds
5:45 AM 53.6 °F 51.8 °F 94% 29.89 in 6.2 mi WNW 8.1 mph - N/A   Mostly Cloudy
6:45 AM 55.4 °F 51.8 °F 88% 29.89 in 6.2 mi WNW 9.2 mph - N/A   Mostly Cloudy
7:15 AM 55.4 °F 51.8 °F 88% 29.92 in 6.2 mi WNW 11.5 mph - N/A   Mostly Cloudy
7:45 AM 55.4 °F 51.8 °F 88% 29.92 in 6.2 mi WNW 10.4 mph - N/A   Overcast
8:00 AM 55 °F 51 °F 83% 29.91 in 9 mi WNW 11.2 mph - -   Partly Cloudy
8:15 AM 55.4 °F 51.8 °F 88% 29.92 in 6.2 mi WNW 9.2 mph - N/A   Overcast
8:45 AM 55.4 °F 51.8 °F 88% 29.92 in 6.2 mi WNW 11.5 mph - N/A   Overcast
9:15 AM 55.4 °F 51.8 °F 88% 29.92 in 6.2 mi West 10.4 mph - N/A   Overcast
9:45 AM 57.2 °F 51.8 °F 82% 29.92 in 6.2 mi West 10.4 mph - N/A   Overcast
10:15 AM 57.2 °F 53.6 °F 88% 29.92 in 6.2 mi West 11.5 mph - N/A   Overcast
10:45 AM 57.2 °F 53.6 °F 88% 29.92 in 6.2 mi West 11.5 mph - N/A   Overcast
11:15 AM 59.0 °F 53.6 °F 82% 29.92 in 6.2 mi West 12.7 mph - N/A   Overcast
11:45 AM 60.8 °F 53.6 °F 77% 29.92 in 6.2 mi West 12.7 mph - N/A   Overcast
12:15 PM 60.8 °F 53.6 °F 77% 29.92 in 6.2 mi West 13.8 mph - N/A   Overcast
12:45 PM 60.8 °F 53.6 °F 77% 29.92 in 6.2 mi WNW 13.8 mph - N/A   Mostly Cloudy
1:15 PM 60.8 °F 53.6 °F 77% 29.92 in 6.2 mi West 13.8 mph - N/A   Overcast
1:45 PM 60.8 °F 53.6 °F 77% 29.92 in 6.2 mi West 12.7 mph - N/A   Overcast
2:00 PM 62 °F 54 °F 69% 29.92 in 12 mi West 13.4 mph - -   Partly Cloudy
2:15 PM 62.6 °F 53.6 °F 72% 29.92 in 6.2 mi West 15.0 mph - N/A   Overcast
2:45 PM 62.6 °F 55.4 °F 77% 29.92 in 6.2 mi West 13.8 mph - N/A   Mostly Cloudy
3:15 PM 62.6 °F 53.6 °F 72% 29.92 in 6.2 mi West 15.0 mph - N/A   Mostly Cloudy
3:45 PM 62.6 °F 53.6 °F 72% 29.92 in 6.2 mi WNW 15.0 mph - N/A   Mostly Cloudy
4:15 PM 64.4 °F 55.4 °F 73% 29.92 in 6.2 mi WNW 16.1 mph - N/A   Scattered Clouds
4:45 PM 62.6 °F 51.8 °F 68% 29.92 in 6.2 mi WNW 17.3 mph - N/A   Scattered Clouds
5:15 PM 62.6 °F 53.6 °F 72% 29.92 in 6.2 mi WNW 16.1 mph - N/A   Mostly Cloudy
5:45 PM 62.6 °F 51.8 °F 68% 29.92 in 6.2 mi WNW 15.0 mph - N/A   Scattered Clouds
6:15 PM 62.6 °F 53.6 °F 72% 29.92 in 6.2 mi WNW 16.1 mph - N/A   Scattered Clouds
6:45 PM 60.8 °F 51.8 °F 72% 29.92 in 6.2 mi WNW 13.8 mph - N/A   Scattered Clouds
7:15 PM 59.0 °F 50.0 °F 72% 29.92 in 6.2 mi WNW 15.0 mph - N/A   Mostly Cloudy
7:45 PM 59.0 °F 50.0 °F 72% 29.92 in 6.2 mi West 11.5 mph - N/A   Mostly Cloudy
8:00 PM 59 °F 50 °F 64% 29.92 in 19 mi West 11.2 mph - -   Partly Cloudy
8:15 PM 59.0 °F 50.0 °F 72% 29.92 in 6.2 mi WNW 13.8 mph - N/A   Mostly Cloudy
8:45 PM 57.2 °F 50.0 °F 77% 29.92 in 6.2 mi WNW 12.7 mph - N/A   Mostly Cloudy
9:15 PM 57.2 °F 48.2 °F 72% 29.95 in - WNW 11.5 mph - N/A   Clear
9:45 PM 55.4 °F 50.0 °F 82% 29.95 in - WNW 8.1 mph - N/A   Clear
10:45 PM 55.4 °F 50.0 °F 82% 29.95 in 6.2 mi WSW 5.8 mph - N/A   Scattered Clouds
11:45 PM 55.4 °F 48.2 °F 77% 29.92 in 6.2 mi WSW 8.1 mph - N/A   Mostly Cloudy